Time,TemperatureF,DewpointF,PressureIn,WindDirection,WindDirectionDegrees,WindSpeedMPH,WindSpeedGustMPH,Humidity,HourlyPrecipIn,Conditions,Clouds,dailyrainin,SoftwareType,DateUTC
2013-05-13 00:14:00,42.8,32.0,30.02,WSW,250,0.0,4.0,65,0.00,,,0.00,weatherlink.com 1.10,2013-05-13 04:14:00,
2013-05-13 00:29:00,42.2,31.0,30.02,West,280,0.0,3.0,66,0.00,,,0.00,weatherlink.com 1.10,2013-05-13 04:29:00,
2013-05-13 00:44:00,42.0,32.0,30.02,West,278,2.0,4.0,67,0.00,,,0.00,weatherlink.com 1.10,2013-05-13 04:44:00,
2013-05-13 00:59:00,41.8,32.0,30.03,WNW,294,2.0,4.0,69,0.00,,,0.00,weatherlink.com 1.10,2013-05-13 04:59:00,
2013-05-13 01:14:00,40.9,33.0,30.03,WNW,288,2.0,3.0,73,0.00,,,0.00,weatherlink.com 1.10,2013-05-13 05:14:00,
2013-05-13 01:29:00,40.2,33.0,30.03,WNW,294,1.0,6.0,75,0.00,,,0.00,weatherlink.com 1.10,2013-05-13 05:29:00,
2013-05-13 01:44:00,39.7,33.0,30.03,WNW,291,1.0,7.0,76,0.00,,,0.00,weatherlink.com 1.10,2013-05-13 05:44:00,
2013-05-13 01:59:00,39.2,33.0,30.02,WNW,293,2.0,3.0,78,0.00,,,0.00,weatherlink.com 1.10,2013-05-13 05:59:00,
2013-05-13 02:14:00,38.5,33.0,30.02,WNW,293,2.0,3.0,79,0.00,,,0.00,weatherlink.com 1.10,2013-05-13 06:14:00,
2013-05-13 02:29:00,38.2,33.0,30.02,WNW,288,1.0,3.0,80,0.00,,,0.00,weatherlink.com 1.10,2013-05-13 06:29:00,
2013-05-13 02:44:00,37.5,32.0,30.02,West,280,0.0,2.0,81,0.00,,,0.00,weatherlink.com 1.10,2013-05-13 06:44:00,
2013-05-13 02:59:00,37.0,32.0,30.02,WNW,283,0.0,2.0,82,0.00,,,0.00,weatherlink.com 1.10,2013-05-13 06:59:00,
2013-05-13 03:14:00,36.0,31.0,30.02,WNW,283,0.0,1.0,83,0.00,,,0.00,weatherlink.com 1.10,2013-05-13 07:14:00,
2013-05-13 03:30:00,35.2,31.0,30.02,WNW,283,0.0,0.0,85,0.00,,,0.00,weatherlink.com 1.10,2013-05-13 07:30:00,
2013-05-13 03:44:00,34.2,30.0,30.02,WNW,283,0.0,0.0,85,0.00,,,0.00,weatherlink.com 1.10,2013-05-13 07:44:00,
2013-05-13 03:59:00,33.7,30.0,30.03,WNW,283,0.0,0.0,87,0.00,,,0.00,weatherlink.com 1.10,2013-05-13 07:59:00,
2013-05-13 04:14:00,32.9,30.0,30.03,WNW,283,0.0,0.0,87,0.00,,,0.00,weatherlink.com 1.10,2013-05-13 08:14:00,
2013-05-13 04:29:00,32.0,29.0,30.03,WNW,283,0.0,0.0,87,0.00,,,0.00,weatherlink.com 1.10,2013-05-13 08:29:00,
2013-05-13 04:44:00,31.6,29.0,30.03,WNW,283,0.0,0.0,88,0.00,,,0.00,weatherlink.com 1.10,2013-05-13 08:44:00,
2013-05-13 04:59:00,31.4,29.0,30.04,WNW,285,0.0,0.0,89,0.00,,,0.00,weatherlink.com 1.10,2013-05-13 08:59:00,
2013-05-13 05:15:00,31.0,28.0,30.04,WNW,285,0.0,0.0,89,0.00,,,0.00,weatherlink.com 1.10,2013-05-13 09:15:00,
2013-05-13 05:30:00,30.8,28.0,30.04,WNW,284,0.0,1.0,90,0.00,,,0.00,weatherlink.com 1.10,2013-05-13 09:30:00,
2013-05-13 05:45:00,30.7,28.0,30.04,WNW,284,0.0,0.0,90,0.00,,,0.00,weatherlink.com 1.10,2013-05-13 09:45:00,
2013-05-13 06:00:00,30.9,28.0,30.04,WNW,284,0.0,0.0,90,0.00,,,0.00,weatherlink.com 1.10,2013-05-13 10:00:00,
2013-05-13 06:15:00,30.5,28.0,30.04,WNW,284,0.0,0.0,91,0.00,,,0.00,weatherlink.com 1.10,2013-05-13 10:15:00,
2013-05-13 06:30:00,31.1,29.0,30.05,WNW,284,0.0,0.0,91,0.00,,,0.00,weatherlink.com 1.10,2013-05-13 10:30:00,
2013-05-13 06:45:00,32.1,30.0,30.05,WNW,284,0.0,0.0,92,0.00,,,0.00,weatherlink.com 1.10,2013-05-13 10:45:00,
2013-05-13 07:00:00,33.1,31.0,30.05,WNW,284,0.0,0.0,92,0.00,,,0.00,weatherlink.com 1.10,2013-05-13 11:00:00,
2013-05-13 07:15:00,34.3,33.0,30.06,SW,217,0.0,1.0,93,0.00,,,0.00,weatherlink.com 1.10,2013-05-13 11:15:00,
2013-05-13 07:30:00,35.5,33.0,30.06,SW,231,2.0,2.0,92,0.00,,,0.00,weatherlink.com 1.10,2013-05-13 11:30:00,
2013-05-13 07:45:00,36.6,34.0,30.07,WNW,283,0.0,4.0,91,0.00,,,0.00,weatherlink.com 1.10,2013-05-13 11:45:00,
2013-05-13 08:00:00,37.5,33.0,30.07,WNW,287,2.0,4.0,85,0.00,,,0.00,weatherlink.com 1.10,2013-05-13 12:00:00,
2013-05-13 08:15:00,38.5,33.0,30.08,West,274,2.0,4.0,81,0.00,,,0.00,weatherlink.com 1.10,2013-05-13 12:15:00,
2013-05-13 08:30:00,40.1,33.0,30.09,West,277,1.0,4.0,75,0.00,,,0.00,weatherlink.com 1.10,2013-05-13 12:30:00,
2013-05-13 08:45:00,40.4,31.0,30.09,WNW,293,1.0,6.0,70,0.00,,,0.00,weatherlink.com 1.10,2013-05-13 12:45:00,
2013-05-13 09:00:00,41.7,33.0,30.10,WNW,301,1.0,5.0,70,0.00,,,0.00,weatherlink.com 1.10,2013-05-13 13:00:00,
2013-05-13 09:15:00,42.0,31.0,30.10,NNW,331,0.0,4.0,66,0.00,,,0.00,weatherlink.com 1.10,2013-05-13 13:15:00,
2013-05-13 09:30:00,42.8,31.0,30.10,West,277,2.0,4.0,63,0.00,,,0.00,weatherlink.com 1.10,2013-05-13 13:30:00,
2013-05-13 09:45:00,42.2,30.0,30.10,WNW,284,4.0,4.0,63,0.00,,,0.00,weatherlink.com 1.10,2013-05-13 13:45:00,
2013-05-13 10:00:00,42.1,31.0,30.10,NW,308,0.0,6.0,65,0.00,,,0.00,weatherlink.com 1.10,2013-05-13 14:00:00,
2013-05-13 10:15:00,42.6,32.0,30.11,SW,233,0.0,4.0,66,0.00,,,0.00,weatherlink.com 1.10,2013-05-13 14:15:00,
2013-05-13 10:30:00,43.9,29.0,30.10,WSW,250,2.0,6.0,57,0.00,,,0.00,weatherlink.com 1.10,2013-05-13 14:30:00,
2013-05-13 10:45:00,44.2,30.0,30.11,WNW,302,1.0,10.0,57,0.00,,,0.00,weatherlink.com 1.10,2013-05-13 14:45:00,
2013-05-13 11:00:00,44.3,28.0,30.11,West,266,3.0,9.0,54,0.00,,,0.00,weatherlink.com 1.10,2013-05-13 15:00:00,
2013-05-13 11:15:00,44.4,32.0,30.11,WNW,297,4.0,6.0,61,0.00,,,0.00,weatherlink.com 1.10,2013-05-13 15:15:00,
2013-05-13 11:30:00,44.4,29.0,30.11,NW,312,3.0,8.0,56,0.00,,,0.00,weatherlink.com 1.10,2013-05-13 15:30:00,
2013-05-13 11:45:00,44.0,31.0,30.11,WNW,301,2.0,7.0,61,0.00,,,0.00,weatherlink.com 1.10,2013-05-13 15:45:00,
2013-05-13 12:00:00,46.3,31.0,30.11,NNE,20,5.0,5.0,55,0.00,,,0.00,weatherlink.com 1.10,2013-05-13 16:00:00,
2013-05-13 12:15:00,46.1,30.0,30.11,WNW,285,1.0,8.0,53,0.00,,,0.00,weatherlink.com 1.10,2013-05-13 16:15:00,
2013-05-13 12:30:00,45.9,30.0,30.11,SW,232,4.0,4.0,55,0.00,,,0.00,weatherlink.com 1.10,2013-05-13 16:30:00,
2013-05-13 12:45:00,45.9,29.0,30.11,West,281,3.0,7.0,53,0.00,,,0.00,weatherlink.com 1.10,2013-05-13 16:45:00,
2013-05-13 13:00:00,47.8,31.0,30.11,WNW,291,1.0,6.0,52,0.00,,,0.00,weatherlink.com 1.10,2013-05-13 17:00:00,
2013-05-13 13:15:00,47.0,29.0,30.11,NW,308,0.0,7.0,50,0.00,,,0.00,weatherlink.com 1.10,2013-05-13 17:15:00,
2013-05-13 13:30:00,46.9,28.0,30.11,South,170,1.0,6.0,49,0.00,,,0.00,weatherlink.com 1.10,2013-05-13 17:30:00,
2013-05-13 13:45:00,48.8,31.0,30.10,SW,232,2.0,5.0,50,0.00,,,0.00,weatherlink.com 1.10,2013-05-13 17:45:00,
2013-05-13 14:00:00,47.9,29.0,30.10,WNW,287,2.0,7.0,49,0.00,,,0.00,weatherlink.com 1.10,2013-05-13 18:00:00,
2013-05-13 14:15:00,48.4,30.0,30.10,NW,310,0.0,7.0,49,0.00,,,0.00,weatherlink.com 1.10,2013-05-13 18:15:00,
2013-05-13 14:30:00,48.3,29.0,30.10,West,270,1.0,4.0,48,0.00,,,0.00,weatherlink.com 1.10,2013-05-13 18:30:00,
2013-05-13 14:45:00,48.9,30.0,30.10,WNW,290,2.0,7.0,49,0.00,,,0.00,weatherlink.com 1.10,2013-05-13 18:45:00,
2013-05-13 15:01:00,48.2,30.0,30.10,WNW,283,4.0,6.0,49,0.00,,,0.00,weatherlink.com 1.10,2013-05-13 19:01:00,
2013-05-13 15:16:00,48.8,28.0,30.10,SW,226,2.0,6.0,44,0.00,,,0.00,weatherlink.com 1.10,2013-05-13 19:16:00,
2013-05-13 15:31:00,48.8,28.0,30.10,SSW,195,3.0,6.0,44,0.00,,,0.00,weatherlink.com 1.10,2013-05-13 19:31:00,
2013-05-13 15:46:00,48.8,28.0,30.10,WNW,301,1.0,6.0,45,0.00,,,0.00,weatherlink.com 1.10,2013-05-13 19:46:00,
2013-05-13 16:01:00,48.6,28.0,30.10,WNW,295,3.0,6.0,45,0.00,,,0.00,weatherlink.com 1.10,2013-05-13 20:01:00,
2013-05-13 16:15:00,49.3,29.0,30.10,SSW,204,4.0,6.0,45,0.00,,,0.00,weatherlink.com 1.10,2013-05-13 20:15:00,
2013-05-13 16:31:00,51.1,31.0,30.09,NNW,329,2.0,6.0,47,0.00,,,0.00,weatherlink.com 1.10,2013-05-13 20:31:00,
2013-05-13 16:46:00,51.2,29.0,30.09,WNW,294,4.0,6.0,42,0.00,,,0.00,weatherlink.com 1.10,2013-05-13 20:46:00,
2013-05-13 17:01:00,51.0,28.0,30.09,NNW,339,2.0,8.0,41,0.00,,,0.00,weatherlink.com 1.10,2013-05-13 21:01:00,
2013-05-13 17:16:00,51.2,28.0,30.08,NW,306,0.0,7.0,41,0.00,,,0.00,weatherlink.com 1.10,2013-05-13 21:16:00,
2013-05-13 17:31:00,51.1,28.0,30.08,WNW,283,5.0,9.0,41,0.00,,,0.00,weatherlink.com 1.10,2013-05-13 21:31:00,
2013-05-13 17:46:00,51.0,27.0,30.08,WNW,283,1.0,6.0,39,0.00,,,0.00,weatherlink.com 1.10,2013-05-13 21:46:00,
2013-05-13 18:01:00,50.9,28.0,30.08,WNW,290,1.0,10.0,41,0.00,,,0.00,weatherlink.com 1.10,2013-05-13 22:01:00,
2013-05-13 18:16:00,50.9,27.0,30.08,WNW,294,4.0,7.0,39,0.00,,,0.00,weatherlink.com 1.10,2013-05-13 22:16:00,
2013-05-13 18:31:00,50.5,27.0,30.08,West,271,5.0,7.0,41,0.00,,,0.00,weatherlink.com 1.10,2013-05-13 22:31:00,
2013-05-13 18:46:00,49.3,26.0,30.08,North,350,0.0,5.0,41,0.00,,,0.00,weatherlink.com 1.10,2013-05-13 22:46:00,
2013-05-13 19:01:00,48.7,26.0,30.09,West,260,0.0,4.0,42,0.00,,,0.00,weatherlink.com 1.10,2013-05-13 23:01:00,
2013-05-13 19:16:00,47.5,27.0,30.09,ENE,65,0.0,8.0,45,0.00,,,0.00,weatherlink.com 1.10,2013-05-13 23:16:00,
2013-05-13 19:31:00,47.4,27.0,30.09,West,266,2.0,4.0,45,0.00,,,0.00,weatherlink.com 1.10,2013-05-13 23:31:00,
2013-05-13 19:46:00,47.2,26.0,30.09,East,84,2.0,4.0,44,0.00,,,0.00,weatherlink.com 1.10,2013-05-13 23:46:00,
2013-05-13 20:01:00,46.2,27.0,30.10,SW,233,0.0,5.0,47,0.00,,,0.00,weatherlink.com 1.10,2013-05-14 00:01:00,
2013-05-13 20:16:00,45.1,27.0,30.10,WNW,283,0.0,3.0,49,0.00,,,0.00,weatherlink.com 1.10,2013-05-14 00:16:00,
2013-05-13 20:31:00,44.1,28.0,30.11,WNW,285,0.0,1.0,54,0.00,,,0.00,weatherlink.com 1.10,2013-05-14 00:31:00,
2013-05-13 20:46:00,42.5,29.0,30.12,West,281,0.0,1.0,60,0.00,,,0.00,weatherlink.com 1.10,2013-05-14 00:46:00,
2013-05-13 21:01:00,41.4,30.0,30.13,North,8,0.0,1.0,63,0.00,,,0.00,weatherlink.com 1.10,2013-05-14 01:01:00,
2013-05-13 21:16:00,40.3,30.0,30.14,WNW,282,0.0,0.0,68,0.00,,,0.00,weatherlink.com 1.10,2013-05-14 01:16:00,
2013-05-13 21:31:00,38.5,30.0,30.14,NNE,12,0.0,0.0,72,0.00,,,0.00,weatherlink.com 1.10,2013-05-14 01:31:00,
2013-05-13 21:46:00,37.4,30.0,30.15,NNE,13,0.0,0.0,74,0.00,,,0.00,weatherlink.com 1.10,2013-05-14 01:46:00,
2013-05-13 22:01:00,36.4,30.0,30.15,NNE,13,0.0,0.0,77,0.00,,,0.00,weatherlink.com 1.10,2013-05-14 02:01:00,
2013-05-13 22:16:00,35.3,29.0,30.16,NNE,13,0.0,0.0,79,0.00,,,0.00,weatherlink.com 1.10,2013-05-14 02:16:00,
2013-05-13 22:31:00,34.3,29.0,30.16,NNE,13,0.0,0.0,81,0.00,,,0.00,weatherlink.com 1.10,2013-05-14 02:31:00,
2013-05-13 22:46:00,33.5,29.0,30.16,NNE,13,0.0,0.0,83,0.00,,,0.00,weatherlink.com 1.10,2013-05-14 02:46:00,
2013-05-13 23:01:00,32.6,28.0,30.16,NNE,12,0.0,0.0,84,0.00,,,0.00,weatherlink.com 1.10,2013-05-14 03:01:00,
2013-05-13 23:16:00,31.6,28.0,30.16,NNE,12,0.0,0.0,85,0.00,,,0.00,weatherlink.com 1.10,2013-05-14 03:16:00,
2013-05-13 23:31:00,30.8,27.0,30.16,NNE,13,0.0,0.0,85,0.00,,,0.00,weatherlink.com 1.10,2013-05-14 03:31:00,
2013-05-13 23:46:00,30.5,27.0,30.16,NNE,13,0.0,0.0,86,0.00,,,0.00,weatherlink.com 1.10,2013-05-14 03:46:00,